Date,TemperatureHighF,TemperatureAvgF,TemperatureLowF,DewpointHighF,DewpointAvgF,DewpointLowF,HumidityHigh,HumidityAvg,HumidityLow,PressureMaxIn,PressureMinIn,WindSpeedMaxMPH,WindSpeedAvgMPH,GustSpeedMaxMPH,PrecipitationSumIn
2014-1-1,36,30,23,27,14,6,71,54,43,0.00,40.00,9,3,20,0.00
2014-1-2,36,31,23,31,27,21,95,86,70,0.00,40.00,20,8,24,0.00
2014-1-3,22,15,9,19,4,-8,94,69,40,0.00,40.00,19,10,36,0.00
2014-1-4,29,16,3,13,0,-100,72,56,25,0.00,40.00,8,2,13,0.00
2014-1-5,48,34,24,47,30,14,96,86,63,0.00,40.00,11,3,19,0.00
2014-1-6,56,44,23,55,36,4,96,75,42,0.00,40.00,20,12,36,0.00
2014-1-7,17,8,4,-7,-14,-20,44,37,31,0.00,40.00,24,12,37,0.00
2014-1-8,22,15,8,-1,-6,-10,53,42,32,0.00,40.00,11,6,21,0.00
2014-1-9,29,23,21,16,8,1,74,56,40,0.00,40.00,5,2,11,0.00
2014-1-10,36,32,23,35,28,15,95,87,71,0.00,40.00,4,1,7,0.13
2014-1-11,57,51,37,56,48,-100,96,93,90,0.00,40.00,20,9,32,1.07
2014-1-12,55,43,35,51,31,25,88,61,48,0.00,40.00,19,10,31,0.02
2014-1-13,47,40,31,37,32,26,86,73,67,0.00,40.00,11,4,16,0.00
2014-1-14,50,46,42,47,43,38,94,88,67,0.00,40.00,8,3,14,0.39
2014-1-15,43,39,37,40,38,36,96,93,84,0.00,40.00,7,2,12,0.01
2014-1-16,40,39,38,38,34,31,96,84,73,0.00,40.00,10,5,13,0.00
2014-1-17,46,40,36,33,32,30,87,73,57,0.00,40.00,7,2,16,0.00
2014-1-18,41,38,36,37,34,31,92,86,77,0.00,40.00,11,3,21,0.11
2014-1-21,17,17,17,13,13,13,91,91,91,0.00,40.00,6,6,0,0.00
2014-1-22,17,12,8,-8,-8,-9,53,42,32,0.00,40.00,16,7,24,0.00
2014-1-23,20,13,6,0,-5,-9,65,50,41,0.00,40.00,11,6,22,0.00
2014-1-24,18,12,7,1,-4,-8,79,54,34,0.00,40.00,11,6,21,0.00
2014-1-25,26,23,22,22,12,-100,92,77,71,0.00,40.00,13,7,19,0.00
2014-1-26,32,23,17,19,5,-7,77,48,34,0.00,40.00,16,7,30,0.00
2014-1-27,47,36,23,28,17,-4,71,48,29,0.00,40.00,22,9,31,0.00
2014-1-28,21,17,14,-1,-6,-11,50,38,29,0.00,40.00,13,6,23,0.00
2014-1-29,21,15,12,8,0,-9,89,60,28,0.00,40.00,16,7,22,0.00
2014-1-30,28,19,9,10,1,-6,72,49,28,0.00,40.00,8,3,14,0.00
2014-1-31,42,30,16,20,13,7,70,52,29,0.00,40.00,10,3,19,0.00
2014-2-1,42,34,28,34,24,-100,94,70,45,0.00,40.00,6,2,11,0.00
2014-2-2,56,44,30,40,34,28,96,71,43,0.00,40.00,9,2,11,0.00
2014-2-3,42,34,31,35,31,26,96,89,69,0.00,40.00,9,4,16,0.22
2014-2-4,34,29,22,27,22,17,92,79,62,0.00,40.00,8,1,8,0.19
2014-2-5,35,33,32,33,31,28,94,91,79,0.00,40.00,21,7,22,1.32
2014-2-6,33,26,23,23,15,11,72,64,53,0.00,40.00,16,8,25,0.00
2014-2-7,33,28,24,16,13,11,70,56,43,0.00,40.00,11,5,21,0.00
2014-2-8,27,24,21,14,7,1,65,50,33,0.00,40.00,8,4,11,0.00
2014-2-9,31,26,21,23,13,6,94,62,36,0.00,40.00,7,4,13,0.02
2014-2-10,28,24,16,21,10,4,94,60,39,0.00,40.00,15,7,23,0.01
2014-2-11,25,19,12,4,2,0,75,52,36,0.00,40.00,13,6,20,0.00
2014-2-12,26,20,14,20,8,2,80,63,52,0.00,40.00,8,4,17,0.00
2014-2-13,35,33,26,33,31,22,96,94,89,0.00,40.00,19,9,35,0.00
2014-2-14,41,35,28,30,24,19,96,67,46,0.00,40.00,20,11,35,0.00
2014-2-15,37,30,26,31,25,-100,96,88,74,0.00,40.00,21,7,27,0.00
2014-2-16,28,24,20,15,8,6,63,53,42,0.00,40.00,16,9,26,0.02
2014-2-17,32,22,18,10,3,-2,71,47,22,0.00,40.00,16,7,25,0.02
2014-2-18,43,35,21,37,26,12,95,72,54,0.00,40.00,16,5,31,0.16
2014-2-19,43,38,25,41,34,22,94,88,78,0.00,40.00,9,3,20,0.40
2014-2-20,51,40,33,36,29,23,90,65,33,0.00,40.00,6,4,15,0.00
2014-2-21,59,43,37,54,40,35,96,90,71,0.00,40.00,11,4,29,0.08
2014-2-22,57,45,34,34,23,-100,92,48,19,0.00,40.00,23,7,31,0.00
2014-2-23,52,46,39,34,30,27,72,55,42,0.00,40.00,8,3,16,0.00
2014-2-24,43,36,28,33,17,6,87,50,31,0.00,40.00,19,10,29,0.00
2014-2-25,32,28,24,18,11,8,57,50,43,0.00,40.00,16,6,26,0.00
2014-2-26,30,26,20,23,10,-5,86,53,27,0.00,40.00,16,5,25,0.01
2014-2-27,32,24,14,23,5,-8,79,49,28,0.00,40.00,20,8,33,0.00
2014-2-28,24,16,9,2,-10,-18,54,33,25,0.00,40.00,15,5,26,0.00
2014-3-1,37,27,13,28,14,-100,82,64,46,0.00,40.00,10,4,16,0.00
2014-3-2,39,35,31,31,25,20,89,68,48,0.00,40.00,5,2,10,0.02
2014-3-3,34,23,19,22,8,-3,90,57,36,0.00,40.00,13,7,21,0.00
2014-3-4,26,21,15,14,6,-1,71,54,38,0.00,40.00,8,3,14,0.02
2014-3-5,37,29,19,17,13,7,88,54,31,0.00,40.00,8,3,21,0.00
2014-3-6,29,25,19,18,10,5,67,54,47,0.00,40.00,13,6,22,0.00
2014-3-7,34,32,29,31,26,19,94,79,64,0.00,40.00,11,6,18,0.03
2014-3-8,55,43,34,33,31,27,89,64,34,0.00,40.00,18,6,26,0.00
2014-3-9,43,40,38,32,19,11,74,44,26,0.00,40.00,16,8,26,0.00
2014-3-10,52,43,37,35,23,15,79,46,34,0.00,40.00,10,5,20,0.00
2014-3-11,65,53,45,39,32,28,73,46,25,0.00,40.00,10,4,22,0.00
2014-3-12,55,49,42,51,43,37,92,79,67,0.00,40.00,28,6,28,0.18
2014-3-13,37,25,19,32,3,-5,80,42,25,0.00,40.00,26,17,43,0.00
2014-3-14,46,33,19,26,10,-6,59,39,24,0.00,40.00,12,7,24,0.00
2014-3-15,60,51,44,29,23,-100,54,35,23,0.00,40.00,15,11,33,0.00
2014-3-16,47,37,33,21,11,5,48,34,26,0.00,40.00,11,8,22,0.00
2014-3-17,33,28,23,19,8,-100,91,48,33,0.00,40.00,11,6,21,0.00
2014-3-18,37,34,30,27,19,11,72,53,36,0.00,40.00,13,8,20,0.00
2014-3-19,48,39,34,46,33,26,93,81,71,0.00,40.00,12,7,23,0.21
2014-3-20,54,47,42,46,30,-100,95,59,28,0.00,40.00,20,11,32,0.01
2014-3-21,51,42,36,27,18,-100,62,41,26,0.00,40.00,15,7,27,0.00
2014-3-22,64,50,33,38,28,-100,79,49,23,0.00,40.00,16,7,31,0.00
2014-3-23,46,39,31,27,18,4,67,43,25,0.00,40.00,16,7,21,0.00
2014-3-24,33,28,21,6,2,0,46,34,25,0.00,40.00,14,8,26,0.00
2014-3-25,37,29,20,28,14,5,91,55,32,0.00,40.00,15,5,22,0.00
2014-3-26,35,32,26,27,11,-1,94,46,25,0.00,40.00,27,14,40,0.04
2014-3-27,40,31,22,23,10,2,54,42,25,0.00,40.00,17,8,26,0.00
2014-3-28,64,53,35,48,40,21,70,63,54,0.00,40.00,19,9,37,0.00
2014-3-29,60,46,41,48,41,-100,95,85,65,0.00,40.00,10,5,21,2.03
2014-3-30,54,46,41,53,44,37,96,93,86,0.00,40.00,15,7,25,0.58
2014-3-31,54,44,35,36,34,31,92,70,44,0.00,40.00,15,8,26,0.25
2014-4-1,52,42,34,33,28,-100,77,59,40,0.00,40.00,10,5,19,0.00
2014-4-2,51,44,38,43,39,33,91,82,72,0.00,40.00,7,2,11,0.04
2014-4-3,57,48,41,41,34,25,94,63,34,0.00,40.00,9,3,12,0.01
2014-4-4,44,41,40,40,38,37,94,90,80,0.00,40.00,9,6,21,0.19
2014-4-5,53,46,41,42,32,-100,95,66,35,0.00,40.00,21,10,34,0.02
2014-4-6,54,43,34,33,24,18,67,48,24,0.00,40.00,16,6,17,0.00
2014-4-7,46,40,34,40,34,31,88,80,65,0.00,40.00,8,3,16,0.00
2014-4-8,47,47,47,46,46,46,96,96,96,0.00,40.00,2,2,7,0.00
2014-4-9,60,56,49,32,26,22,41,31,25,0.00,40.00,13,9,30,0.00
2014-4-10,53,45,35,30,24,17,69,45,32,0.00,40.00,18,6,28,0.00
2014-4-11,73,64,58,49,44,38,72,49,31,0.00,40.00,11,5,18,0.00
2014-4-12,65,57,51,51,39,-100,85,56,28,0.00,40.00,15,6,20,0.00
2014-4-13,73,62,50,54,49,42,87,64,46,0.00,40.00,16,9,26,0.00
2014-4-14,70,65,58,57,54,51,87,69,56,0.00,40.00,18,12,31,0.00
2014-4-15,65,57,37,59,54,33,93,88,79,0.00,40.00,24,13,39,0.81
2014-4-16,47,39,31,32,21,15,92,50,28,0.00,40.00,21,11,30,0.14
2014-4-17,43,40,38,31,27,17,72,59,38,0.00,40.00,11,8,21,0.00
2014-4-18,43,40,37,35,30,28,80,69,61,0.00,40.00,7,5,18,0.00
2014-4-19,63,49,37,37,30,-100,87,55,22,0.00,40.00,10,4,20,0.00
2014-4-20,52,47,42,38,32,28,74,56,38,0.00,40.00,11,6,21,0.00
2014-4-21,54,47,36,42,37,31,88,68,52,0.00,40.00,11,5,15,0.00
2014-4-22,69,57,45,51,46,41,86,67,48,0.00,40.00,15,6,21,0.00
2014-4-23,60,54,45,46,35,27,63,49,36,0.00,40.00,21,12,35,0.00
2014-4-24,61,51,41,29,17,9,55,29,13,0.00,40.00,21,12,37,0.00
2014-4-25,54,49,41,42,27,17,81,44,25,0.00,40.00,16,6,21,0.00
2014-4-26,62,50,46,46,42,-100,94,79,46,0.00,40.00,17,6,24,0.76
2014-4-27,58,52,42,44,35,30,92,56,37,0.00,40.00,19,8,24,0.00
2014-4-28,60,52,43,39,36,32,78,54,36,0.00,40.00,11,5,17,0.00
2014-4-29,50,46,43,43,39,38,83,77,70,0.00,40.00,16,10,31,0.06
2014-4-30,56,46,43,54,43,38,95,91,82,0.00,40.00,14,9,31,4.02
2014-5-1,76,64,56,63,58,52,95,83,43,0.00,40.00,16,7,23,0.36
2014-5-2,67,62,57,57,41,33,89,51,29,0.00,40.00,14,5,21,0.00
2014-5-3,67,57,48,47,39,-100,70,53,36,0.00,40.00,15,4,21,0.00
2014-5-4,63,58,55,48,37,24,76,48,29,0.00,40.00,21,8,35,0.00
2014-5-5,67,58,48,35,30,21,55,36,18,0.00,40.00,16,8,25,0.00
2014-5-6,64,56,49,42,35,26,63,45,33,0.00,40.00,11,4,16,0.00
2014-5-13,53,52,51,45,45,45,80,78,74,0.00,40.00,9,7,16,0.00
2014-5-14,55,52,50,52,48,44,95,87,77,0.00,40.00,8,4,13,0.00
2014-5-15,67,62,54,64,60,53,96,93,87,0.00,40.00,18,7,21,0.04
2014-5-16,64,62,60,62,60,58,95,93,90,0.00,40.00,21,11,33,0.98
2014-5-17,68,60,53,58,45,-100,93,65,36,0.00,40.00,10,5,18,0.01
2014-5-18,65,58,46,46,40,34,88,54,34,0.00,40.00,7,3,18,0.00
2014-5-19,71,58,46,44,32,-100,70,43,24,0.00,40.00,11,4,29,0.00
2014-5-20,76,63,51,43,41,30,72,47,22,0.00,40.00,10,4,20,0.00
2014-5-21,73,67,62,55,50,46,69,56,42,0.00,40.00,10,3,21,0.00
2014-5-22,64,59,58,60,54,-100,94,85,70,0.00,40.00,8,3,13,0.28
2014-5-23,65,60,57,59,56,53,95,89,76,0.00,40.00,7,2,11,0.28
2014-5-24,68,58,55,55,51,-100,92,80,59,0.00,40.00,6,3,15,0.05
2014-5-25,74,64,54,56,53,49,94,68,44,0.00,40.00,11,5,16,0.00
2014-5-26,85,74,62,55,49,47,63,44,27,0.00,40.00,14,5,21,0.00
2014-5-27,85,77,68,62,57,53,70,51,36,0.00,40.00,11,5,26,0.00
2014-5-28,70,59,54,62,53,46,94,83,74,0.00,40.00,11,6,19,0.00
2014-5-29,57,54,52,48,45,43,78,72,63,0.00,40.00,10,5,17,0.00
2014-5-30,70,61,54,58,50,47,87,69,52,0.00,40.00,9,4,16,0.01
2014-5-31,68,62,57,55,50,41,85,66,39,0.00,40.00,14,5,23,0.01
2014-6-1,71,62,49,48,42,35,87,53,27,0.00,40.00,9,4,13,0.00
2014-6-2,80,69,54,54,48,40,65,47,35,0.00,40.00,14,7,19,0.00
2014-6-3,80,71,62,67,59,51,90,65,52,0.00,40.00,12,5,24,0.03
2014-6-4,77,68,62,63,61,60,92,79,62,0.00,40.00,7,2,15,0.00
2014-6-5,75,67,62,63,59,50,94,78,51,0.00,40.00,12,5,20,0.49
2014-6-6,74,66,58,58,51,48,77,59,42,0.00,40.00,12,5,26,0.00
2014-6-7,78,68,58,55,50,-100,80,57,36,0.00,40.00,7,3,13,0.00
2014-6-8,80,71,60,61,57,54,85,62,44,0.00,40.00,11,4,18,0.00
2014-6-9,70,67,65,66,62,54,94,86,58,0.00,40.00,6,4,11,0.99
2014-6-10,77,70,67,68,66,65,94,87,75,0.00,40.00,6,3,14,0.00
2014-6-11,68,62,60,65,59,56,94,88,81,0.00,40.00,13,5,23,0.01
2014-6-12,69,63,59,64,61,58,95,92,84,0.00,40.00,8,5,16,0.03
2014-6-13,76,69,65,70,66,63,95,91,78,0.00,40.00,10,4,14,0.90
2014-6-14,74,68,62,67,56,-100,94,69,44,0.00,40.00,13,6,23,0.01
2014-6-15,79,67,56,61,53,49,86,62,39,0.00,40.00,13,5,21,0.00
2014-6-16,72,66,58,58,56,50,91,73,47,0.00,40.00,8,3,11,0.00
2014-6-17,83,78,70,69,67,62,80,70,56,0.00,40.00,11,5,14,0.00
2014-6-18,90,83,78,68,63,55,70,52,31,0.00,40.00,16,7,23,0.00
2014-6-19,74,71,68,67,65,62,91,81,71,0.00,40.00,5,3,18,0.17
2014-6-20,78,71,62,64,52,41,91,54,26,0.00,40.00,11,3,16,0.00
2014-6-21,70,66,64,59,49,-100,84,57,35,0.00,40.00,10,5,16,0.00
2014-6-22,73,67,61,63,57,52,94,71,48,0.00,40.00,11,3,14,0.00
2014-6-23,76,69,58,62,58,52,93,70,44,0.00,40.00,15,4,18,0.00
2014-6-24,77,71,64,65,60,52,83,68,42,0.00,40.00,19,8,25,0.00
2014-6-25,80,75,69,71,68,60,91,81,71,0.00,40.00,15,7,21,0.03
2014-6-26,86,78,69,69,66,62,92,69,46,0.00,40.00,12,4,16,0.01
2014-6-27,77,71,66,65,59,52,87,68,43,0.00,40.00,9,5,21,0.00
2014-6-28,82,70,60,60,54,-100,92,62,39,0.00,40.00,11,4,17,0.00
2014-6-29,77,70,59,64,57,48,90,65,39,0.00,40.00,11,5,18,0.00
2014-6-30,82,73,66,67,64,59,91,75,46,0.00,40.00,13,6,21,0.00
2014-7-1,86,79,71,71,67,64,88,69,58,0.00,40.00,16,7,23,0.00
2014-7-2,88,80,73,72,70,64,91,71,55,0.00,40.00,21,7,25,0.39
2014-7-3,85,78,72,73,70,67,92,79,65,0.00,40.00,13,6,24,0.07
2014-7-4,72,70,67,69,63,50,92,80,51,0.00,40.00,13,6,26,0.58
2014-7-5,80,72,61,52,49,46,63,46,30,0.00,40.00,11,7,22,0.00
2014-7-6,85,75,63,60,54,48,71,50,29,0.00,40.00,13,6,23,0.00
2014-7-7,92,80,70,64,60,56,71,53,31,0.00,40.00,17,8,26,0.00
2014-7-8,91,83,71,69,67,61,78,60,43,0.00,40.00,13,6,50,0.02
2014-7-9,85,78,70,70,66,57,86,67,39,0.00,40.00,11,6,19,0.00
2014-7-10,79,74,70,68,62,57,80,68,49,0.00,40.00,7,4,15,0.00
2014-7-11,79,73,68,66,62,54,91,72,44,0.00,40.00,8,4,14,0.00
2014-7-12,80,73,66,66,64,56,92,74,44,0.00,40.00,12,5,19,0.00
2014-7-13,80,75,70,70,68,66,87,80,64,0.00,40.00,14,7,21,0.00
2014-7-14,81,76,71,72,69,65,93,80,67,0.00,40.00,7,3,17,1.25
2014-7-15,85,74,70,74,70,67,93,87,70,0.00,40.00,9,4,20,0.87
2014-7-16,81,73,69,70,64,53,93,75,41,0.00,40.00,11,3,13,0.08
2014-7-17,77,71,63,61,57,51,88,64,40,0.00,40.00,10,3,12,0.00
2014-7-18,80,69,60,61,55,46,90,62,31,0.00,40.00,8,3,16,0.00
2014-7-19,74,70,65,65,60,57,82,72,56,0.00,40.00,5,2,11,0.00
2014-7-20,73,69,66,63,62,61,85,78,71,0.00,40.00,8,4,17,0.00
2014-7-21,79,71,61,65,62,59,93,73,52,0.00,40.00,9,4,52,0.63
2014-7-22,82,76,64,66,63,58,87,65,58,0.00,40.00,11,4,18,1.16
2014-7-23,85,77,70,73,68,60,84,72,61,0.00,40.00,11,6,18,0.00
2014-7-24,80,74,66,68,64,57,94,72,44,0.00,40.00,8,4,14,0.67
2014-7-25,78,73,68,62,56,53,74,57,43,0.00,40.00,11,4,18,0.31
2014-7-26,79,71,66,66,61,59,84,70,56,0.00,40.00,10,5,18,0.45
2014-7-27,87,77,70,71,68,65,89,75,48,0.00,40.00,10,5,17,0.00
2014-7-28,82,76,66,71,64,57,94,68,46,0.00,40.00,11,5,24,1.31
2014-7-29,75,70,63,58,52,48,75,56,39,0.00,40.00,11,6,20,0.00
2014-7-30,76,68,60,59,56,52,86,66,47,0.00,40.00,9,3,16,0.00
2014-7-31,81,69,61,66,57,54,81,65,44,0.00,40.00,11,5,19,0.00
2014-8-1,79,74,71,69,66,64,87,78,66,0.00,40.00,11,4,18,0.00
2014-8-2,72,66,65,67,62,62,93,84,78,0.00,40.00,9,3,21,1.24
2014-8-3,73,69,66,66,63,61,92,83,67,0.00,40.00,8,2,11,0.16
2014-8-4,79,73,68,69,67,65,93,82,71,0.00,40.00,11,4,16,0.00
2014-8-5,83,76,67,68,65,62,90,69,50,0.00,40.00,10,4,16,0.00
2014-8-6,80,74,68,66,63,60,83,69,53,0.00,40.00,8,4,14,0.00
2014-8-7,81,73,62,60,54,48,85,53,33,0.00,40.00,11,4,18,0.00
2014-8-8,80,70,59,59,54,46,79,60,32,0.00,40.00,10,3,14,0.00
2014-8-9,83,71,60,59,55,51,87,58,35,0.00,40.00,6,3,23,0.29
2014-8-10,83,73,62,63,58,50,88,62,31,0.00,40.00,6,2,13,0.00
2014-8-11,79,74,62,66,62,56,92,68,45,0.00,40.00,14,4,16,0.00
2014-8-12,77,74,72,70,66,63,88,77,70,0.00,40.00,21,8,26,0.49
2014-8-13,83,74,68,70,66,59,93,77,49,0.00,40.00,13,6,31,3.40
2014-8-14,77,71,63,60,52,47,74,53,36,0.00,40.00,10,5,18,0.00
2014-8-15,74,66,57,58,52,48,89,64,42,0.00,40.00,14,5,17,0.00
2014-8-16,78,67,58,61,54,50,80,63,43,0.00,40.00,9,4,16,0.00
2014-8-17,80,72,66,64,58,54,78,64,44,0.00,40.00,10,4,16,0.01
2014-8-18,68,63,59,56,55,55,86,75,62,0.00,40.00,9,3,13,0.00